Regional Weather Roundup
Issued by NWS

Home | Current Version | Previous Version | Text Only | Print | Product List | Glossary Off
Versions: 1 2 3 4 5 6 7 8 9 10 11 12 13 14 15 16 17 18 19 20 21 22 23 24 25 26 27 28 29 30 31 32 33 34 35 36 37 38 39 40 41 42 43 44 45 46 47 48 49 50

000
ASUS45 KTFX 111704
RWRMT
MONTANA HOURLY WEATHER ROUNDUP
NATIONAL WEATHER SERVICE GREAT FALLS MT
1104 AM MDT FRI JUL 11 2014

NOTE: "FAIR" INDICATES FEW OR NO CLOUDS BELOW 12000 FEET WITH NO
SIGNIFICANT WEATHER AND/OR OBSTRUCTIONS TO VISIBILITY.

* THESE STATIONS ARE NOT UNDER NWS QUALITY CONTROL. THEY DO NOT
   REPORT WEATHER SUCH AS PRECIPITATION OR FOG.

MTZ001>007-043-111800-
WEST OF THE DIVIDE
CITY           SKY/WX    TMP DP  RH WIND       PRES   REMARKS
KALISPELL      SUNNY     75  52  45 N7        30.08F
MISSOULA       SUNNY     79  52  39 E18G24    30.07F
BUTTE          SUNNY     70  45  41 CALM      30.20S
MULLAN PASS    SUNNY     64  45  50 VRB5      30.20R
* ESSEX        N/A      N/A N/A N/A N/A        N/A
* LINCOLN      N/A       61  47  60 NE13G21    N/A
* LOOKOUT PASS N/A       69  46  44 S6         N/A
* POLSON       N/A       74  54  50 NW3        N/A
* RONAN APT    SUNNY     73  55  53 N/A        N/A
* SEELEY LAKE  N/A       71  50  48 W3G8       N/A
* THOMP F APT  SUNNY     71  50  48 E5G14      N/A
* YAAK HILL    N/A       81  50  34 S2         N/A
$$

MTZ008-052>055-111800-
SOUTHWEST MONTANA
CITY           SKY/WX    TMP DP  RH WIND       PRES   REMARKS
BOZEMAN        PTCLDY    73  52  48 W13       30.15S
DILLON         SUNNY     73  46  38 NE13      30.15S
W YELLOWSTONE  PTCLDY    72  46  40 SE6       30.23S
* THREE FORKS  PTCLDY    70  70 100 NE7        N/A
* BOULDER HILL N/A       58  47  67 N17G22     N/A
* MONIDA PASS  N/A       69  48  47 E9         N/A
* RAYNOLDS PAS N/A       63  63 100 NW13       N/A
* WHITEHALL    N/A       74  53  48 E5G12      N/A
* WISE RIVER   N/A       69  46  44 NW6G11     N/A
$$

MTZ009>010-012-014-046-048-049-054-111800-
EAST SLOPES AND CENTRAL MONTANA
CITY           SKY/WX    TMP DP  RH WIND       PRES   REMARKS
CUT BANK       SUNNY     63  46  54 N5        30.23F
GREAT FALLS    CLOUDY    63  46  54 NE8       30.21F
HELENA         PTSUNNY   68  52  57 N16       30.18S
* CONRAD       SUNNY     63  57  81 N/A        N/A
* DEARBORN     N/A       61  48  62 N7G14      N/A
* EAST GLACIER N/A       59  44  58 W3G9       N/A
* MONARCH      N/A       52  49  90 NW8        N/A
* PENDROY      N/A       59  47  65 N4G10      N/A
* ROGERS PASS  N/A       54  44  69 S4G11      N/A
* SAINT MARY   N/A       65  48  54 SE5G12     N/A
* SWEET GRASS  N/A       58  49  72 NE5G11     N/A
$$

MTZ011-013-016-021-035-040-045-047-050-051-111800-
NORTH CENTRAL MONTANA
CITY           SKY/WX    TMP DP  RH WIND       PRES   REMARKS
HAVRE          CLOUDY    64  50  61 N7        30.19F
* CHESTER      N/A       63  48  58 N5G11      N/A
* DENTON       N/A       71  54  55 W7         N/A
* GEYSER       N/A       63  52  68 SE5        N/A
* JUDITH GAP   N/A       68  50  53 S13G20     N/A
* LOMA         N/A       65  51  61 N12        N/A
$$

MTZ017>020-022>027-061-062-111800-
NORTHEAST MONTANA
CITY           SKY/WX    TMP DP  RH WIND       PRES   REMARKS
GLASGOW        SUNNY     72  52  49 NW12      30.12R
GLENDIVE       PTCLDY    77  50  39 NE7       30.08R
JORDAN         SUNNY     75  52  45 N15       30.10S
SIDNEY         PTCLDY    72  55  55 N8        30.10R
WOLF POINT     PTCLDY    75  54  48 N9        30.08F
* BEAVER HILL  N/A       74  48  40 N13G19     N/A
* CIRCLE       N/A       69  57  66 NW7G12     N/A
* LINDSAY DVD  N/A       72  52  49 NW10G19    N/A
* NAVAJO       N/A       67  50  55 N17        N/A
* SACO         N/A       67  52  59 NW11G17    N/A
$$

MTZ028>042-056>058-111800-
SOUTHCENTRAL AND SOUTHEAST MONTANA
CITY           SKY/WX    TMP DP  RH WIND       PRES   REMARKS
BAKER          TSTM      75  48  39 E13       30.07F
BILLINGS       PTSUNNY   72  55  55 NE10      30.15R
LIVINGSTON     PTCLDY    72  54  53 E18G25    30.17F
MILES CITY     SUNNY     77  50  39 E14G21    30.08R
* LAUREL APT   SUNNY     70  54  57 NE7        N/A
* ROUNDUP APT  SUNNY     72  46  40 NE11G18    N/A
* ALZADA       N/A       79  60  52 N11G16     N/A
* HYSHAM       N/A       74  48  40 E13G24     N/A
* LAME DEER    N/A       69  58  68 NE12G20    N/A
* REED POINT   N/A       69  58  68 NE6        N/A
* ROSCOE HILL  N/A       66  52  61 VRB8       N/A
$$

REGIONAL REPORTS...DAKOTAS
CITY           SKY/WX    TMP DP  RH WIND       PRES   REMARKS
WILLISTON      PTSUNNY   73  52  48 N16       30.07S
DICKINSON      TSTM      70  59  68 SE3       30.06R
CROSBY         SUNNY     66  55  68 NW12      30.07R
WATFORD CITY   SUNNY     66  55  68 N9        30.05F
BISMARCK       PTCLDY    79  59  50 N10       29.99S
GRAND FORKS    PTCLDY    81  70  69 N10       29.88R HI  84
FARGO          SUNNY     82  72  72 NW7       29.87S HI  87
BUFFALO SD     SUNNY     79  57  47 NE18G25   30.02R
RAPID CITY     SUNNY     82  63  53 N13G20    30.04R HI  83
$$

REGIONAL REPORTS...WYOMING/IDAHO/WASHINGTON
CITY           SKY/WX    TMP DP  RH WIND       PRES   REMARKS
GILLETTE       PTCLDY    84  55  37 VRB7      30.08R
SHERIDAN       PTCLDY    81  55  41 N9        30.11R HI  81
CODY           PTCLDY   N/A N/A N/A N17G23    30.17R
YELLOWSTONE LA SUNNY     63  52  68 VRB5      30.34F
SALMON         SUNNY     75  46  36 CALM      30.04F
MULLAN PASS    SUNNY     64  45  50 VRB5      30.20S
SAND POINT     SUNNY     77  50  39 NE13      30.00S
SPOKANE        SUNNY     79  48  34 NE8       29.99S
$$

REGIONAL REPORTS...SASKATCHEWAN
CITY           SKY/WX    TMP DP  RH WIND       PRES   REMARKS
SWIFT CURRENT  PTCLDY    59  52  78 NW12G17   30.14S

$$




USA.gov is the U.S. government's official web portal to all federal, state and local government web resources and services.